This is the latest recevied weather packets stored in our database for station/object K1RFS. If no packets are shown the sender has not sent any weather packets the latest 10 day(s).
| Time | Temp. | Humidity | Pressure | Rain* | Wind** | Luminosity | Snow |
|---|---|---|---|---|---|---|---|
| 1777304853 | 3.89° C | 91% | 997.8 hPa | 1.27 mm | - | 104 W/m² | - |
| 1777304551 | 4.44° C | 91% | 997.7 hPa | 0 mm | - | 85 W/m² | - |
| 1777304248 | 4.44° C | 90% | 997.7 hPa | 0 mm | - | 78 W/m² | - |
| 1777303945 | 5° C | 90% | 998 hPa | 0 mm | - | 57 W/m² | - |
| 1777303642 | 5° C | 89% | 997.7 hPa | 0 mm | - | 48 W/m² | - |
| 1777303340 | 5° C | 89% | 997.6 hPa | 0 mm | - | 37 W/m² | - |
| 1777303037 | 5° C | 89% | 997.6 hPa | 0 mm | - | 43 W/m² | - |
| 1777302734 | 5° C | 89% | 997.7 hPa | 0 mm | - | 34 W/m² | - |
| 1777302432 | 5° C | 89% | 997.6 hPa | 0 mm | - | 29 W/m² | - |
| 1777302129 | 5° C | 89% | 997.5 hPa | 0 mm | - | 30 W/m² | - |
| 1777301827 | 5° C | 89% | 997.6 hPa | 0 mm | - | 40 W/m² | - |
| 1777301525 | 5° C | 90% | 997.4 hPa | 0 mm | - | 61 W/m² | - |
| 1777301221 | 5° C | 90% | 997.4 hPa | 0 mm | - | 84 W/m² | - |
| 1777300917 | 4.44° C | 90% | 997.5 hPa | 0 mm | - | 78 W/m² | - |
| 1777300616 | 4.44° C | 90% | 997.5 hPa | 0 mm | - | 65 W/m² | - |
| 1777300313 | 4.44° C | 90% | 997.2 hPa | 0 mm | - | 68 W/m² | - |
| 1777300010 | 4.44° C | 90% | 997.3 hPa | 0 mm | - | 56 W/m² | - |
| 1777299706 | 5° C | 90% | 997.2 hPa | 0 mm | - | 50 W/m² | - |
| 1777299404 | 4.44° C | 90% | 997 hPa | 0 mm | - | 42 W/m² | - |
| 1777299101 | 5° C | 90% | 997.2 hPa | 0 mm | - | 35 W/m² | - |
| 1777298799 | 4.44° C | 90% | 997.2 hPa | 0 mm | - | 29 W/m² | - |
| 1777298494 | 5° C | 89% | 997.2 hPa | 0 mm | - | 23 W/m² | - |
| 1777298192 | 5.56° C | 88% | 997.2 hPa | 0 mm | - | 29 W/m² | - |
| 1777297887 | 5.56° C | 88% | 996.9 hPa | 0 mm | - | 35 W/m² | - |
| 1777297584 | 5° C | 87% | 996.8 hPa | 0 mm | - | 42 W/m² | - |
* Rain latest hour (hover to see other rain measurements)
** Current wind speed in m/s (hover to see current wind gust speed)